www.pogodaiklimat.ru

Погода и климат >> Архив погоды >> Финляндия >> Ниинисало


ПОГОДА в Ниинисало

  • Прогноз погоды в Ниинисало
  • Монитор погоды в Ниинисало

АРХИВ ПОГОДЫ в Ниинисало

Время (UTC), дата Ветер
(напр.,м/с)
 
Видим.   Явления Облачность Т
(С)
Тd
(С)
f
(%)
Тe
(С)
Тes
(С)
Комфортность P
(гПа)
Po
(гПа)
Тmin
(С)
Tmax
(С)
R
(мм)
R24
(мм)
S
(см)
22 15.09 З 1-3
{4}
2100 м в посл. час дождь ясно +6.7 +6.2 97 +5 +5 988.1 973.2 0.3
23 15.09 ЮЗ 1 1300 м в посл. час туман 1/1 50 м
[]
+5.7 +5.3 97 +4 +4 988.4 973.4
00 16.09 штиль 0-3
{4}
16 км 4/4 600 м
[]
+5.4 +4.9 97 +4 +4 988.5 973.5
01 16.09 ЮЗ 2 1000 м в посл. час туман 1/1 1000 м
[]
+4.6 +4.1 97 +2 +2 988.6 973.6
02 16.09 ЮЗ 2-3
{4}
35 км в посл. час туман 9/9 1000 м
[]
+5.0 +4.5 97 +2 +2 988.8 973.8
03 16.09 З 2-4
{4}
14 км {туман, метель} 1/1 600 м
[]
+5.0 +4.6 97 +2 +2 988.9 973.9
04 16.09 З 1 13 км 1/1 1000 м
[]
+4.6 +4.1 97 +3 +3 989.1 974.0
05 16.09 СЗ 3 8000 м дымка 10/10 50 м
[]
+5.8 +5.3 97 +2 +2 989.3 974.3
06 16.09 СЗ 3-5
{6}
7000 м дымка {туман} 10/10 50 м
[]
+6.8 +6.3 97 +4 +4 990.0 975.1 +4.4 +8.2 5
07 16.09 СЗ 4-5
{7}
24 км 10/10 100 м
[]
+7.4 +7.0 97 +4 +4 990.7 975.8
08 16.09 СЗ 4-7
{7}
50 км 10/10 200 м
[]
+8.1 +7.4 95 +5 +5 991.5 976.6
09 16.09 С 3-6
{7}
40 км {дождь, дымка} 9/9 300 м
[]
+8.8 +7.4 91 +6 +7 992.5 977.6
10 16.09 СЗ 4-7
{7}
50 км 9/9 300 м
[]
+9.2 +6.8 85 +6 +7 993.2 978.4
11 16.09 С 5 22 км морось 10/10 300 м
[]
+8.5 +6.1 85 +5 +5 994.3 979.4
12 16.09 С 6-11
{11}
50 км в посл. час дождь {ливн. осадки} 9/9 300 м
[]
+8.5 +5.7 83 +5 +5 995.4 980.4
13 16.09 С 4-6
{9}
15 км сильн. ливневой дождь 9/9 200 м
[]
+7.8 +6.7 93 +4 +5 996.2 981.2 0.4
14 16.09 СЗ 4 45 км в посл. час дождь 6/1 200 м
[]
+8.0 +7.0 93 +5 +5 996.7 981.8
15 16.09 СЗ 3-5
{6}
40 км {ливн. осадки, дождь} 4/4 1500 м
[]
+8.3 +7.2 93 +6 +6 997.0 982.0
16 16.09 СЗ 2 45 км 9/6 600 м
[]
+8.5 +7.3 92 +7 +7 997.1 982.1
17 16.09 СЗ 4 50 км в посл. час морось 6/4 600 м
[]
+7.7 +5.7 87 +4 +4 997.6 982.6
18 16.09 СЗ 1-3
{5}
45 км {ливн. осадки, дождь} 4/0
[]
+5.4 +4.5 94 +4 +4 998.1 982.9 +5.4 +9.5 0.4
19 16.09 СЗ 2-4
{4}
30 км 6/0
[]
+4.5 +3.9 96 +2 +2 998.2 983.0
20 16.09 СЗ 3-4
{4}
29 км 6/1
[]
+4.4 +3.9 97 +1 +1 998.4 983.2
21 16.09 СЗ 1-3
{3}
12 км 4/4
[]
+3.2 +2.6 96 +1 +1 998.5 983.2
22 16.09 З 1 4300 м дымка ясно +1.9 +1.2 95 0 0 998.5 983.2
23 16.09 З 1-2
{3}
6000 м дымка ясно +0.9 +0.4 96 -1 -1 998.4 983.0
00 17.09 З 1-2
{3}
5000 м дымка ясно 0.0 -0.5 96 -2 -2 998.4 983.0
01 17.09 СЗ 1-2
{2}
13 км 9/0
[]
-0.2 -0.7 96 -2 -2 998.1 982.7
02 17.09 СЗ 1-2
{2}
12 км 6/0
[]
0.0 -0.5 96 -2 -2 998.0 982.5
03 17.09 СЗ 2 20 км {дымка} 6/0
[]
+0.2 -0.3 96 -4 -4 997.9 982.5
04 17.09 штиль 0 11 км 4/0
[]
-0.4 -0.9 96 -2 -2 997.8 982.3
05 17.09 штиль 0 11 км 1/0
[]
-0.4 -0.9 96 -2 -2 997.7 982.3
06 17.09 штиль 0-1
{1}
17 км {дымка} 1/1
[]
+1.3 +0.9 97 0 +1 997.7 982.3 -0.5 +5.4
07 17.09 штиль 0-2
{2}
40 км ясно +4.1 +3.6 97 +3 +5 997.6 982.4
08 17.09 штиль 0-2
{2}
40 км 1/0
[]
+6.1 +4.6 90 +5 +9 997.6 982.5
09 17.09 СЗ 3-4
{4}
40 км ясно +10.1 +3.2 62 +8 +12 997.6 982.7
10 17.09 СЗ 2 45 км 1/1 1000 м
[]
+10.2 +3.1 61 +9 +14 997.7 982.8
11 17.09 С 3 50 км 4/4 1000 м
[]
+10.1 +3.0 61 +8 +11 997.9 983.0
12 17.09 СЗ 3-5
{6}
50 км 1/0
[]
+11.0 +3.3 59 +9 +13 998.0 983.2
13 17.09 СЗ 3-5
{6}
50 км 1/0 1000 м
[]
+11.1 +3.1 58 +10 +12 998.0 983.1
14 17.09 СЗ 3 50 км 1/1 1500 м
[]
+10.7 +3.5 61 +9 +10 998.1 983.2
15 17.09 СЗ 3-4
{7}
50 км слаб. ливневой дождь 9/9 1000 м
[]
+10.2 +4.6 68 +8 +8 998.3 983.4
16 17.09 СЗ 2-7
{7}
50 км 9/9 600 м
[]
+9.3 +6.0 80 +8 +8 998.5 983.6
17 17.09 СЗ 2-4
{6}
45 км 9/9 300 м
[]
+8.3 +6.9 91 +6 +6 999.0 984.0
18 17.09 С 2 45 км сильн. дождь {ливн. осадки} 9/6 300 м
[]
+8.1 +6.8 91 +6 +6 999.4 984.4 +1.3 +11.4
19 17.09 С 2 50 км в посл. час дождь 6/6 300 м
[]
+7.7 +6.6 93 +6 +6 999.7 984.7
20 17.09 С 2 50 км 1/1 1000 м
[]
+7.3 +6.5 95 +5 +5 1000.2 985.1
21 17.09 С 2-3
{4}
50 км {ливн. осадки, дождь} 9/4 1500 м
[]
+7.1 +6.4 95 +5 +5 1000.7 985.7
22 17.09 С 3 50 км 6/6 2000 м
[]
+6.7 +5.9 95 +3 +3 1001.1 986.0
23 17.09 С 2 50 км 4/4 2000 м
[]
+6.0 +5.3 95 +3 +3 1001.6 986.4
00 18.09 С 3-4
{4}
50 км {ливн. осадки, дождь} 9/9 2000 м
[]
+5.8 +5.1 95 +2 +2 1002.1 986.9
01 18.09 С 3-5
{5}
50 км 4/0 2000 м
[]
+5.4 +4.8 96 +2 +2 1002.4 987.2
02 18.09 С 3 45 км ясно +4.7 +4.2 97 +1 +1 1003.1 987.8
03 18.09 С 2-4
{4}
40 км ясно +3.8 +3.2 96 +1 +1 1003.6 988.3
04 18.09 С 3 45 км 1/1
[]
+3.2 +2.7 97 -1 -1 1004.0 988.7
05 18.09 С 1-3
{4}
50 км 6/0
[]
+3.0 +2.5 97 +1 +1 1004.7 989.3
06 18.09 С 3-5
{5}
50 км 4/4
[]
+4.6 +3.8 95 +1 +1 1005.4 990.1 +2.9 +8.1
07 18.09 С 4-5
{5}
45 км ясно +6.5 +4.5 87 +3 +4 1006.0 990.8
08 18.09 С 3-5
{5}
40 км ясно +7.2 +4.7 84 +4 +7 1006.7 991.5
09 18.09 С 3-5
{6}
45 км 1/1 300 м
[]
+9.2 +4.2 71 +7 +10 1007.3 992.2
10 18.09 С 3 40 км 1/1 600 м
[]
+9.0 +3.4 68 +7 +10 1007.6 992.5
11 18.09 С 3-6
{6}
50 км 6/6 600 м
[]
+10.7 +1.8 54 +9 +11 1007.9 992.9
12 18.09 С 4-6
{6}
50 км 6/6 1000 м
[]
+10.5 +1.5 54 +8 +9 1008.4 993.4
13 18.09 С 4 50 км 1/1 1000 м
[]
+10.0 +0.5 52 +8 +10 1008.8 993.7
14 18.09 С 4-6
{7}
50 км 6/6 1000 м
[]
+10.3 +1.4 54 +8 +9 1009.1 994.0
15 18.09 С 2-3
{6}
50 км ясно +9.0 +0.9 57 +8 +8 1009.7 994.6
16 18.09 С 2 50 км 1/1 1000 м
[]
+8.9 +0.8 57 +8 +8 1010.0 994.9
17 18.09 СЗ 1 50 км ясно +6.0 +1.9 75 +5 +5 1010.5 995.2
18 18.09 С 2-3
{3}
50 км ясно +3.5 +0.9 83 +1 +1 1011.4 995.9 +3.5 +11.1
19 18.09 С 1 50 км 9/9
[]
+2.4 +0.7 89 +1 +1 1011.8 996.3
20 18.09 штиль 0
{2}
50 км 9/0
[]
+1.8 +0.6 92 +1 +1 1012.0 996.5
21 18.09 штиль 0
{2}
40 км 10/10
[]
+1.8 +0.7 92 +1 +1 1012.3 996.7
22 18.09 СВ 1-2
{2}
50 км 10/0
[]
+1.7 +0.8 94 -0 -0 1012.5 996.9
23 18.09 штиль 0 45 км 9/9
[]
+1.4 +0.6 94 0 0 1012.7 997.1
00 19.09 штиль 0 30 км 9/9
[]
+1.1 +0.1 93 -0 -0 1012.7 997.1
01 19.09 штиль 0 19 км 1/1
[]
+0.6 -0.3 94 -1 -1 1012.8 997.1
02 19.09 штиль 0 17 км 1/1 2000 м
[]
-0.1 -0.7 96 -1 -1 1012.7 997.0
03 19.09 СЗ 1-3
{6}
8000 м сильн. дождь {осадки} 10/10 600 м
[]
+1.7 +1.3 97 -0 -0 1013.1 997.6 0.8
04 19.09 Ю 2 20 км в посл. час дождь 10/10 2000 м
[]
+1.8 +1.3 96 -2 -2 1012.9 997.3
05 19.09 ЮЗ 1 9000 м дымка 9/9
[]
+1.8 +1.3 96 -0 -0 1013.0 997.5
06 19.09 З 1-2
{3}
23 км {ливн. осадки, дождь} 1/1 600 м
[]
+2.6 +2.2 97 +1 +1 1013.6 998.1 -0.1 +3.5 0.9
07 19.09 СЗ 2-4
{4}
40 км ясно +5.2 +4.5 95 +2 +4 1013.7 998.3
08 19.09 СЗ 4-7
{7}
40 км 1/0 300 м
[]
+6.8 +4.9 88 +3 +5 1014.1 998.8
09 19.09 СЗ 4-7
{8}
50 км 9/9 600 м
[]
+7.6 +3.0 73 +4 +5 1014.7 999.4
10 19.09 СЗ 5 50 км 9/9 600 м
[]
+7.5 +2.2 69 +4 +4 1015.0 999.7
11 19.09 СЗ 6 45 км 9/9 600 м
[]
+8.5 +3.0 68 +5 +5 1015.3 1000.0
12 19.09 С 5-8
{11}
18 км сильн. дождь {ливн. осадки} 6/6 600 м
[]
+6.4 +3.5 82 +2 +3 1016.1 1000.7
13 19.09 С 4 50 км в посл. час дождь 4/1 600 м
[]
+8.0 +2.9 70 +5 +6 1016.2 1000.9
14 19.09 С 7 50 км сильн. ливневой дождь 1/1 1500 м
[]
+6.3 +1.8 73 +1 +2 1016.8 1001.4
15 19.09 СЗ 5-9
{10}
50 км {ливн. осадки, метель} ясно +7.0 +1.3 67 +3 +4 1017.0 1001.6
16 19.09 СЗ 3 50 км 1/1
[]
+6.3 +1.6 72 +3 +3 1017.3 1001.9
17 19.09 С 2 50 км ясно +4.4 +1.3 80 +2 +2 1017.9 1002.4
18 19.09 штиль 0
{3}
50 км {ливн. осадки, метель} ясно +1.8 +0.4 90 +1 +1 1018.3 1002.7 +1.8 +9.1 0.1
19 19.09 З 1-2
{2}
50 км ясно +0.3 -0.7 93 -2 -2 1018.3 1002.6
20 19.09 штиль 0
{2}
50 км ясно -0.6 -1.3 95 -2 -2 1018.2 1002.4
21 19.09 ЮЗ 1-2
{2}
50 км ясно -1.3 -2.0 95 -4 -4 1018.2 1002.4
22 19.09 штиль 0 50 км ясно -1.5 -2.1 96 -3 -3 1018.3 1002.5
23 19.09 ЮЗ 2-3
{4}
50 км 1/0 2000 м
[]
-1.5 -2.1 96 -6 -6 1018.3 1002.5
00 20.09 ЮЗ 2-2
{3}
50 км 1/1 2000 м
[]
-1.6 -2.2 96 -6 -6 1018.0 1002.2
01 20.09 З 1 50 км ясно -1.9 -2.5 96 -4 -4 1017.9 1002.0
02 20.09 ЮЗ 2 50 км ясно -1.3 -1.7 97 -5 -5 1017.5 1001.7
03 20.09 штиль 0
{2}
50 км ясно -2.0 -2.5 96 -3 -3 1017.3 1001.4
04 20.09 штиль 0 50 км ясно -2.2 -2.7 96 -4 -4 1017.1 1001.3
05 20.09 штиль 0-2
{2}
50 км 1/0 1500 м
[]
-1.6 -2.1 96 -3 -3 1016.8 1001.0
06 20.09 Ю 2-3
{3}
50 км ясно +1.0 +0.6 97 -3 -2 1016.7 1001.0 -2.3 +1.8
07 20.09 штиль 0 45 км 1/1 1000 м
[]
+3.0 +1.9 92 +2 +4 1016.5 1001.0
08 20.09 штиль 0-3
{3}
50 км 1/0
[]
+4.4 +3.1 91 +3 +7 1016.3 1000.8
09 20.09 Ю 1-3
{3}
45 км 1/0
[]
+7.1 +3.6 78 +6 +11 1016.1 1000.8
10 20.09 З 1 45 км 1/1
[]
+9.1 +2.1 62 +9 +14 1015.8 1000.5
11 20.09 З 2 50 км 1/1 600 м
[]
+10.0 +2.9 61 +9 +13 1015.5 1000.3
12 20.09 З 4-6
{6}
50 км 1/1 1000 м
[]
+10.5 +2.2 56 +8 +11 1014.9 999.8
13 20.09 З 4-6
{6}
45 км 1/0 1000 м
[]
+9.9 +1.2 55 +8 +9 1014.6 999.4
14 20.09 З 3 50 км 1/1
[]
+9.3 +0.6 55 +7 +9 1014.2 999.0
15 20.09 З 2-5
{5}
50 км 4/1 1000 м
[]
+8.5 +1.4 61 +7 +7 1013.8 998.6
16 20.09 ЮЗ 1 50 км 9/6 1000 м
[]
+7.8 +2.2 68 +7 +7 1013.5 998.3
17 20.09 ЮЗ 1 35 км морось 9/9 300 м
[]
+6.2 +4.5 89 +5 +5 1013.2 997.9
18 20.09 штиль 0-2
{3}
45 км морось {дождь} 9/9 1500 м
[]
+5.8 +5.0 95 +5 +5 1013.2 997.8 +1.0 +10.5 0.3
19 20.09 Ю 2-3
{3}
23 км морось 9/9 600 м
[]
+5.7 +5.1 96 +3 +3 1012.7 997.3 0.2
20 20.09 ЮВ 2 27 км слаб. морось 10/10 600 м
[]
+5.6 +5.0 96 +3 +3 1012.0 996.7
21 20.09 ЮВ 1-3
{4}
13 км морось 10/10 300 м
[]
+5.7 +5.2 97 +4 +4 1011.3 996.0 0.1
22 20.09 ЮВ 2 10 км морось 10/10 50 м
[]
+5.6 +5.1 97 +3 +3 1010.8 995.5
23 20.09 ЮВ 1 3200 м сильн. морось 10/10 50 м
[]
+5.7 +5.3 97 +4 +4 1010.2 994.9
00 21.09 ЮВ 2-3
{3}
3400 м морось {дождь} 10/10 50 м
[]
+5.8 +5.4 97 +3 +3 1009.4 994.1 0.2
01 21.09 ЮВ 2-3
{3}
4400 м слаб. ливневой дождь 10/0 50 м
[]
+5.9 +5.5 97 +3 +3 1009.0 993.7 0.1
02 21.09 ЮВ 2 800 м сильн. дождь ?/? +5.9 +5.6 98 +3 +3 1008.6 993.3
03 21.09 штиль 0-2
{3}
1200 м слаб. ливневой дождь ?/? +6.0 +5.6 97 +5 +5 1008.1 992.8 0.1
04 21.09 штиль 0
{2}
1500 м сильн. ливневой дождь ?/? +6.0 +5.6 97 +5 +5 1007.8 992.6 0.1
05 21.09 штиль 0-1
{2}
3200 м сильн. дождь 10/10 <50 м
[]
+6.2 +5.8 97 +5 +5 1007.5 992.3 0.1
06 21.09 штиль 0
{2}
7000 м в посл. час дождь {ливн. осадки} 10/10 <50 м
[]
+6.7 +6.4 98 +6 +6 1007.6 992.4 +5.6 +6.7 2
07 21.09 штиль 0 2800 м дымка ?/? +7.2 +6.8 97 +6 +6 1008.0 992.8
08 21.09 СЗ 4 17 км 10/10 100 м
[]
+8.2 +7.7 97 +5 +5 1008.3 993.1
09 21.09 СЗ 5-7
{7}
50 км {метель, дымка} 10/10 300 м
[]
+8.5 +7.2 92 +5 +5 1008.7 993.5
10 21.09 СЗ 3 35 км 10/10 300 м
[]
+8.2 +6.6 90 +5 +5 1008.9 993.8
11 21.09 СЗ 4-7
{7}
50 км в посл. час дождь 10/10 300 м
[]
+8.3 +6.0 85 +5 +5 1009.2 994.1
12 21.09 СЗ 2-3
{7}
50 км {ливн. осадки, дождь} 10/10 300 м
[]
+8.4 +5.5 82 +7 +7 1009.5 994.4
13 21.09 СЗ 3-4
{6}
45 км 10/10 300 м
[]
+8.5 +5.9 84 +6 +6 1009.7 994.6
14 21.09 СЗ 3-5
{6}
50 км 10/10 600 м
[]
+8.4 +5.1 80 +6 +6 1009.7 994.5
15 21.09 СЗ 5-7
{7}
50 км 9/9 300 м
[]
+8.5 +5.3 80 +5 +5 1009.9 994.8
16 21.09 С 4 13 км слаб. ливневой дождь 9/9 300 м
[]
+7.9 +5.8 87 +5 +5 1010.4 995.2
17 21.09 СЗ 3 50 км в посл. час морось 6/6 600 м
[]
+6.9 +5.5 91 +4 +4 1011.1 995.8
18 21.09 СЗ 4-6
{6}
50 км {ливн. осадки, дождь} 4/4 600 м
[]
+6.1 +4.2 88 +2 +2 1011.7 996.4 +6.1 +8.8
19 21.09 СЗ 2-4
{6}
50 км 1/1 1000 м
[]
+4.9 +3.6 91 +2 +2 1012.2 996.8
20 21.09 С 3-5
{5}
50 км 6/6 300 м
[]
+4.4 +3.3 93 +1 +1 1012.6 997.2
21 21.09 СЗ 3-3
{6}
50 км ясно +2.9 +2.1 94 -1 -1 1013.0 997.5
22 21.09 СЗ 2 30 км ясно +1.8 +1.2 96 -2 -2 1013.5 997.9
23 21.09 СЗ 2-2
{3}
21 км ясно +1.1 +0.6 96 -3 -3 1013.7 998.1
00 22.09 З 2-3
{3}
21 км 1/1
[]
+0.1 -0.4 96 -4 -4 1014.1 998.4
01 22.09 СЗ 2 19 км 9/4
[]
0.0 -0.5 96 -4 -4 1014.6 998.9
02 22.09 С 3-4
{5}
50 км 4/0
[]
+1.8 +1.3 96 -3 -3 1015.0 999.4
03 22.09 СЗ 2-4
{4}
35 км ясно +0.3 -0.2 96 -3 -3 1015.0 999.3
04 22.09 С 3 50 км ясно +0.8 +0.3 96 -4 -4 1015.5 999.9
05 22.09 С 2 50 км ясно +0.5 -0.2 95 -3 -3 1016.2 1000.5
06 22.09 С 3-4
{6}
50 км ясно +2.6 +1.1 90 -2 -1 1017.1 1001.5 -0.1 +6.1
07 22.09 С 3-6
{6}
50 км ясно +4.6 +1.5 80 +1 +2 1017.9 1002.4
08 22.09 С 5-6
{8}
45 км ясно +5.9 +1.2 72 +2 +3 1018.4 1003.0
09 22.09 С 5-8
{9}
50 км 1/1 600 м
[]
+7.6 +0.8 62 +4 +6 1018.8 1003.5
10 22.09 С 5 40 км 1/1 1000 м
[]
+8.3 +0.8 59 +5 +7 1019.2 1003.9
11 22.09 С 5 45 км 4/4 1000 м
[]
+8.8 -0.2 53 +6 +7 1019.5 1004.2
12 22.09 С 5-8
{8}
35 км 1/1 1000 м
[]
+9.4 -0.4 50 +7 +8 1019.7 1004.4
13 22.09 С 4 50 км 9/9 1000 м
[]
+9.2 +0.1 53 +7 +7 1020.0 1004.7
14 22.09 СЗ 5 50 км ясно +8.6 +0.1 55 +5 +6 1020.2 1004.9
15 22.09 С 4-7
{7}
50 км 1/1 1000 м
[]
+7.8 +0.8 61 +5 +5 1020.8 1005.4
16 22.09 С 3-4
{5}
50 км ясно +7.2 +0.5 62 +5 +5 1021.0 1005.6
17 22.09 СЗ 2 50 км ясно +5.0 +0.7 74 +3 +3 1021.7 1006.1
18 22.09 С 2-3
{4}
50 км ясно +2.7 +0.6 86 -0 -0 1022.6 1006.9 +2.6 +10.0
19 22.09 С 3 50 км ясно +2.7 +1.0 89 -1 -1 1022.9 1007.2
20 22.09 С 2-4
{4}
50 км ясно +1.7 +0.2 90 -2 -2 1023.2 1007.5
21 22.09 С 2-4
{4}
50 км ясно +0.9 +0.1 94 -3 -3 1023.7 1008.0
22 22.09 С 2 50 км ясно -0.4 -2.1 88 -4 -4 1024.2 1008.3

 

Местоположение метеостанции Ниинисало (Финляндия): широта 61.84 долгота 22.46 высота над уровнем моря 122 м.

В архиве по умолчанию представлена погода в Ниинисало за последнюю неделю. Архивные данные за месяц целиком и за предыдущие месяцы, начиная с января 2011 года, Вы можете получить, выбрав интересующий диапазон дат из раскрывающегося списка и нажав кнопку "Ввод!".


*Определитесь, кто Вы:
робот инопланетянин человек

Внимание! Время в таблицах - всемирное. Для получения местного времени необходимо прибавить поправку, которая равна 1 ч.

Смотрите также архив погоды в соседних городах и на ближайших метеорологических станциях:

Погода в Ниинисало (Финляндия) (1 км)
Погода в Карвиа Алккиа (Финляндия) (41 км)
Погода в Пори ж/д вокзале (Финляндия) (54 км)
Погода в Тахколуото (Финляндия) (61 км)
Погода в Каухайоки (Финляндия) (65 км)
Погода в Кокемяки (Финляндия) (66 км)
Погода на Острове Сиилинкари (Финляндия) (77 км)
Погода в Аэропорту Пирккала (Финляндия) (77 км)
Погода в Виррат Айяннева (Финляндия) (78 км)
Погода в Криистийнанкаупунки (Финляндия) (78 км)

Пояснения к столбцам:

Ветер - указаны скорость ветра в м/с - средняя за 10 мин, порывы в срок и между сроками (в фигурных скобках) и направление, откуда дует ветер: С - северный, СВ - северо-восточный, В - восточный, ЮВ - юго-восточный, Ю - южный, ЮЗ - юго-западный, З - западный, СЗ - северо-западный.
Видимость - горизонтальная дальность видимости в метрах или километрах. При видимости от 1 до 10 км при отсутствии осадков обычно наблюдается дымка, при ухудшении видимости до 1 км и менее - туман. В сухую погоду видимость может ухудшаться дымом, пылью или мглою.
Явления - указаны атмосферные явления, наблюдавшиеся в срок или в последний час перед сроком; фигурными скобками обозначены явления, наблюдавшиеся между сроками (за 1-3 часа до срока); квадратными скобками обозначены град или гололедные отложения с указанием их диаметра в мм.
Облачность - указаны через наклонную черту общая и нижняя облачность в баллах и высота нижней границы облаков в метрах; квадратными скобками обозначены формы облаков: Ci - перистые, Cs - перисто-слоистые, Cc - перисто-кучевые, Ac - высококучевые, As - высокослоистые, Sc - слоисто-кучевые, Ns - слоисто-дождевые, Cu - кучевые, Cb - кучево-дождевые. Подробнее классификацию облаков см. в Атласе облаков (PDF).
T - Температура воздуха - температура, измеренная на высоте 2 м над землей.
Td - Температура точки росы - температура, при понижении до которой содержащийся в воздухе водяной пар достигнет насыщения.
f - Относительная влажность воздуха - влажноcть воздуха, измеренная на высоте 2 м над землей.
Te - Эффективная температура - температура, которую ощущает одетый по сезону человек в тени. Характеристика душности погоды. При расчете учитывается влияние влажности воздуха и скорости ветра на теплоощущения человека.
Tes - Эффективная температура на солнце - температура, которую ощущает человек, с поправкой на солнечный нагрев. Характеристика знойности погоды. Зависит от высоты солнца над горизонтом, облачности и скорости ветра. Ночью, в пасмурную погоду, а также при ветре 12 м/с и более поправка равна нулю.
P - Атмосферное давление - приведенное к уровню моря атмосферное давление.
Po - Атмосферное давление - измеренное на уровне метеостанции атмосферное давление.
Tmin - Минимальная температура - минимум температуры воздуха на высоте 2 м над землей.
Tmax - Максимальная температура - максимум температуры воздуха на высоте 2 м над землей.
R - Количество осадков - Количество выпавших осадков за период времени, мм. При наведении курсора мыши на число - период времени, за который выпало указанное количество осадков.
R24 - Количество осадков - Количество выпавших осадков за 24 часа, мм.
S - Снежный покров - Высота снежного покрова, см. При наведении курсора мыши на число - состояние снежного покрова и степень покрытия местности в баллах.